sat.trackr.live / text

‹ back to catalog

STARLINK-33920

NORAD 63710 · 2025-087P

PAYLOAD ACTIVE UNKNOWN

§ Identity

Operator
Country
US
Launch date
2025-04-28
Launch site
AFWTR
Launch vehicle
Mass (kg)
RCS (m²)

Purposes: comms

External: N2YO · Heavens-Above · Gunter

§ Orbital elements

Epoch: 2026-05-24T22:35:16.931616Z

Period
94.01 min
Inclination
53.1600°
Eccentricity
0.0001594
Mean motion
15.31737264 rev/d
Perigee alt
469.5 km
Apogee alt
471.7 km
Semi-major
6,848.8 km
B*
5.8115e-4
RAAN
225.4052°
Arg perigee
95.5699°
Mean anomaly
264.5484°
Rev number
6,087

§ Raw data

STARLINK-339201 63710U 25087P   26144.94116819  .00017733  00000+0  58115-3 0  99982 63710  53.1600 225.4052 0001594  95.5699 264.5484 15.31737264 60879

JSON: /api/v1/satellites/63710 · /tle

For live sub-satellite position, see the globe view (requires WebGL).

§ Visibility from observer

Set your observer location to see the next 7 days of passes ≥ 10°. The values pass through the URL so the page stays shareable.

No JS? Fill the form by hand. The geolocation button needs JavaScript.